HVN1201 VVNB-VVCR

Flight info

Callsign HVN1201
Flight time 1h 25m
Altitude 38000
Route NAH Q1 DAN W2 KAMGO
Aircraft A359/H-V/N

Departure

Time 2026-04-29 05:27
Airport Noi Bai International Airport (VVNB)

Arrival

Time 2026-04-29 06:53
Airport Cam Ranh International Airport / Cam Ranh Air Base (VVCR)
Time Latitude Longitude Altitude Speed Heading
2026-04-29 05:13 21.21950 105.79166 55 ft 0 kts 198°
2026-04-29 05:19 21.21959 105.79169 48 ft 3 kts 198°
2026-04-29 05:19 21.21976 105.79175 49 ft 3 kts 198°
2026-04-29 05:19 21.21994 105.79182 47 ft 3 kts 212°
2026-04-29 05:20 21.22009 105.79195 47 ft 3 kts 233°
2026-04-29 05:20 21.22019 105.79212 47 ft 3 kts 243°
2026-04-29 05:20 21.22026 105.79231 47 ft 3 kts 259°
2026-04-29 05:20 21.22027 105.79251 47 ft 3 kts 280°
2026-04-29 05:21 21.22026 105.79255 47 ft 0 kts 282°
2026-04-29 05:22 21.22031 105.79237 54 ft 6 kts 287°
2026-04-29 05:23 21.22048 105.79175 52 ft 5 kts 287°
2026-04-29 05:23 21.22085 105.79147 49 ft 9 kts 358°
2026-04-29 05:23 21.22156 105.79123 51 ft 13 kts 300°
2026-04-29 05:23 21.22189 105.79007 56 ft 19 kts 286°
2026-04-29 05:24 21.22234 105.78854 51 ft 24 kts 287°
2026-04-29 05:24 21.22263 105.78753 56 ft 1 kts 287°
2026-04-29 05:24 21.22271 105.78725 51 ft 8 kts 287°
2026-04-29 05:24 21.22294 105.78644 51 ft 15 kts 287°
2026-04-29 05:25 21.22351 105.78613 50 ft 11 kts 15°
2026-04-29 05:25 21.22438 105.78641 51 ft 6 kts 18°
2026-04-29 05:25 21.22453 105.78663 50 ft 4 kts 77°
2026-04-29 05:25 21.22450 105.78704 51 ft 7 kts 103°
2026-04-29 05:26 21.22445 105.78720 52 ft 0 kts 108°
2026-04-29 05:26 21.22411 105.78832 50 ft 50 kts 107°
2026-04-29 05:26 21.22230 105.79452 53 ft 122 kts 108°
2026-04-29 05:27 21.21926 105.80523 99 ft 177 kts 108°
2026-04-29 05:27 21.21123 105.83255 1414 ft 206 kts 108°
2026-04-29 05:27 21.20699 105.84778 2053 ft 225 kts 107°
2026-04-29 05:28 21.20241 105.86486 2530 ft 245 kts 107°
2026-04-29 05:28 21.19760 105.88286 3086 ft 257 kts 106°
2026-04-29 05:28 21.19271 105.90124 3793 ft 262 kts 106°
2026-04-29 05:28 21.18766 105.92012 4499 ft 266 kts 106°
2026-04-29 05:29 21.18244 105.93926 5198 ft 269 kts 106°
2026-04-29 05:29 21.17710 105.95865 5890 ft 272 kts 107°
2026-04-29 05:29 21.16977 105.97735 6535 ft 275 kts 123°
2026-04-29 05:29 21.15612 105.99159 7193 ft 277 kts 150°
2026-04-29 05:30 21.13789 105.99812 7874 ft 278 kts 169°
2026-04-29 05:30 21.11870 106.00124 8542 ft 281 kts 172°
2026-04-29 05:30 21.09921 106.00390 9214 ft 284 kts 173°
2026-04-29 05:30 21.07956 106.00666 9864 ft 286 kts 172°
2026-04-29 05:31 21.05951 106.00957 10379 ft 296 kts 172°
2026-04-29 05:31 21.03853 106.01268 10663 ft 312 kts 172°
2026-04-29 05:31 21.01654 106.01598 10933 ft 327 kts 172°
2026-04-29 05:31 20.99356 106.01946 11202 ft 340 kts 172°
2026-04-29 05:32 20.96976 106.02302 11603 ft 348 kts 172°
2026-04-29 05:32 20.94568 106.02661 12114 ft 352 kts 172°
2026-04-29 05:32 20.92133 106.03027 12631 ft 355 kts 172°
2026-04-29 05:32 20.89676 106.03400 13147 ft 358 kts 172°
2026-04-29 05:33 20.87201 106.03774 13656 ft 361 kts 172°
2026-04-29 05:33 20.84698 106.04156 14154 ft 364 kts 172°
2026-04-29 05:33 20.82181 106.04539 14656 ft 366 kts 172°
2026-04-29 05:33 20.79648 106.04925 15150 ft 369 kts 172°
2026-04-29 05:34 20.77093 106.05315 15634 ft 372 kts 172°
2026-04-29 05:34 20.74526 106.05706 16116 ft 374 kts 172°
2026-04-29 05:34 20.71965 106.06097 16568 ft 377 kts 172°
2026-04-29 05:34 20.69360 106.06494 17028 ft 380 kts 172°
2026-04-29 05:35 20.66737 106.06894 17477 ft 382 kts 172°
2026-04-29 05:35 20.64093 106.07298 17916 ft 385 kts 172°
2026-04-29 05:35 20.61432 106.07704 18355 ft 387 kts 172°
2026-04-29 05:35 20.58756 106.08111 18781 ft 390 kts 172°
2026-04-29 05:36 20.56060 106.08534 19203 ft 393 kts 171°
2026-04-29 05:36 20.53364 106.09027 19601 ft 395 kts 170°
2026-04-29 05:36 20.50645 106.09546 20001 ft 397 kts 170°
2026-04-29 05:36 20.47913 106.10064 20398 ft 400 kts 170°
2026-04-29 05:37 20.45167 106.10581 20786 ft 402 kts 170°
2026-04-29 05:37 20.42403 106.11096 21157 ft 405 kts 170°
2026-04-29 05:37 20.39633 106.11675 21521 ft 407 kts 166°
2026-04-29 05:37 20.36931 106.12632 21882 ft 410 kts 159°
2026-04-29 05:38 20.34295 106.13814 22235 ft 412 kts 156°
2026-04-29 05:38 20.31689 106.15099 22578 ft 414 kts 155°
2026-04-29 05:38 20.29121 106.16424 22896 ft 416 kts 154°
2026-04-29 05:38 20.26480 106.17803 23240 ft 418 kts 154°
2026-04-29 05:39 20.23888 106.19146 23561 ft 421 kts 154°
2026-04-29 05:39 20.21213 106.20516 23879 ft 423 kts 155°
2026-04-29 05:39 20.18582 106.21847 24183 ft 425 kts 155°
2026-04-29 05:39 20.15905 106.23190 24481 ft 427 kts 155°
2026-04-29 05:40 20.13213 106.24534 24789 ft 429 kts 155°
2026-04-29 05:40 20.10506 106.25883 25071 ft 431 kts 155°
2026-04-29 05:40 20.07787 106.27236 25349 ft 432 kts 155°
2026-04-29 05:40 20.05052 106.28597 25654 ft 434 kts 155°
2026-04-29 05:41 20.02314 106.29960 25941 ft 436 kts 155°
2026-04-29 05:41 19.99550 106.31336 26233 ft 438 kts 155°
2026-04-29 05:41 19.96787 106.32712 26526 ft 440 kts 155°
2026-04-29 05:41 19.94002 106.34098 26824 ft 442 kts 155°
2026-04-29 05:42 19.91213 106.35486 27126 ft 444 kts 155°
2026-04-29 05:42 19.88401 106.36885 27432 ft 446 kts 155°
2026-04-29 05:42 19.85583 106.38286 27736 ft 449 kts 155°
2026-04-29 05:42 19.82749 106.39694 28055 ft 451 kts 155°
2026-04-29 05:43 19.79895 106.41112 28375 ft 453 kts 155°
2026-04-29 05:43 19.77039 106.42531 28686 ft 455 kts 155°
2026-04-29 05:43 19.74163 106.43958 28997 ft 457 kts 155°
2026-04-29 05:43 19.71274 106.45392 29305 ft 459 kts 155°
2026-04-29 05:44 19.68368 106.46833 29616 ft 462 kts 155°
2026-04-29 05:44 19.65457 106.48276 29928 ft 464 kts 155°
2026-04-29 05:44 19.62519 106.49733 30234 ft 466 kts 155°
2026-04-29 05:44 19.59571 106.51193 30558 ft 468 kts 155°
2026-04-29 05:45 19.56612 106.52658 30875 ft 471 kts 155°
2026-04-29 05:45 19.53636 106.54131 31197 ft 473 kts 155°
2026-04-29 05:45 19.50649 106.55609 31511 ft 475 kts 155°
2026-04-29 05:45 19.47646 106.57094 31813 ft 478 kts 155°
2026-04-29 05:46 19.44663 106.58569 32097 ft 480 kts 155°
2026-04-29 05:46 19.41633 106.60066 32377 ft 482 kts 155°
2026-04-29 05:46 19.38590 106.61569 32650 ft 484 kts 155°
2026-04-29 05:46 19.35535 106.63078 32919 ft 486 kts 155°
2026-04-29 05:47 19.32463 106.64594 33181 ft 488 kts 155°
2026-04-29 05:47 19.29374 106.66118 33425 ft 490 kts 155°
2026-04-29 05:47 19.26282 106.67643 33662 ft 492 kts 155°
2026-04-29 05:47 19.23165 106.69180 33910 ft 494 kts 155°
2026-04-29 05:48 19.20043 106.70710 34135 ft 496 kts 155°
2026-04-29 05:48 19.16898 106.72205 34436 ft 495 kts 156°
2026-04-29 05:48 19.13738 106.73676 34785 ft 494 kts 156°
2026-04-29 05:48 19.10621 106.75116 35119 ft 494 kts 156°
2026-04-29 05:49 19.07472 106.76572 35447 ft 493 kts 156°
2026-04-29 05:49 19.04315 106.78036 35785 ft 492 kts 156°
2026-04-29 05:49 19.01175 106.79497 36100 ft 492 kts 156°
2026-04-29 05:49 18.98039 106.80961 36420 ft 491 kts 156°
2026-04-29 05:50 18.94950 106.82405 36706 ft 491 kts 156°
2026-04-29 05:50 18.91823 106.83867 36991 ft 491 kts 156°
2026-04-29 05:50 18.88688 106.85334 37273 ft 491 kts 156°
2026-04-29 05:50 18.85553 106.86799 37547 ft 491 kts 156°
2026-04-29 05:51 18.83476 106.87771 37729 ft 491 kts 156°
2026-04-29 05:51 18.79287 106.89728 37983 ft 493 kts 156°
2026-04-29 05:51 18.73049 106.92633 38001 ft 492 kts 156°
2026-04-29 05:52 18.67833 106.95059 38000 ft 492 kts 156°
2026-04-29 05:52 18.60491 106.98474 38000 ft 492 kts 156°
2026-04-29 05:53 18.55279 107.00897 38000 ft 492 kts 156°
2026-04-29 05:53 18.48990 107.03818 38000 ft 492 kts 156°
2026-04-29 05:54 18.42755 107.06720 38000 ft 492 kts 156°
2026-04-29 05:54 18.36466 107.09642 38000 ft 492 kts 156°
2026-04-29 05:55 18.30223 107.12538 38000 ft 492 kts 156°
2026-04-29 05:55 18.23944 107.15451 38000 ft 492 kts 156°
2026-04-29 05:56 18.17660 107.18364 38000 ft 492 kts 156°
2026-04-29 05:56 18.11418 107.21256 38000 ft 492 kts 156°
2026-04-29 05:57 18.05136 107.24170 38000 ft 492 kts 156°
2026-04-29 05:57 17.98910 107.27114 38000 ft 492 kts 156°
2026-04-29 05:58 17.92663 107.30089 38000 ft 492 kts 156°
2026-04-29 05:58 17.86406 107.33065 38000 ft 492 kts 156°
2026-04-29 05:59 17.80186 107.36016 38000 ft 492 kts 156°
2026-04-29 05:59 17.73933 107.38980 38000 ft 492 kts 156°
2026-04-29 06:00 17.67675 107.41943 38000 ft 492 kts 156°
2026-04-29 06:00 17.61422 107.44903 38000 ft 492 kts 156°
2026-04-29 06:01 17.55195 107.47847 38000 ft 492 kts 156°
2026-04-29 06:01 17.48941 107.50802 38000 ft 492 kts 156°
2026-04-29 06:02 17.42727 107.53736 38000 ft 492 kts 156°
2026-04-29 06:02 17.36467 107.56689 38000 ft 492 kts 156°
2026-04-29 06:03 17.30211 107.59639 38000 ft 492 kts 156°
2026-04-29 06:03 17.23991 107.62569 38000 ft 492 kts 156°
2026-04-29 06:04 17.17726 107.65518 38000 ft 492 kts 156°
2026-04-29 06:04 17.11467 107.68467 38000 ft 492 kts 156°
2026-04-29 06:05 17.05264 107.71454 38000 ft 492 kts 155°
2026-04-29 06:05 16.99046 107.74478 38000 ft 492 kts 155°
2026-04-29 06:06 16.92820 107.77504 38000 ft 492 kts 155°
2026-04-29 06:06 16.86625 107.80508 38000 ft 492 kts 155°
2026-04-29 06:07 16.80399 107.83523 38000 ft 492 kts 155°
2026-04-29 06:07 16.74870 107.86198 38000 ft 492 kts 155°
2026-04-29 06:08 16.68628 107.89218 38000 ft 492 kts 155°
2026-04-29 06:08 16.62399 107.92236 38000 ft 492 kts 155°
2026-04-29 06:09 16.56213 107.95224 38000 ft 492 kts 155°
2026-04-29 06:09 16.49983 107.98237 38000 ft 492 kts 155°
2026-04-29 06:10 16.43759 108.01239 38000 ft 492 kts 155°
2026-04-29 06:10 16.37560 108.04225 38000 ft 492 kts 155°
2026-04-29 06:11 16.31323 108.07229 38000 ft 492 kts 155°
2026-04-29 06:11 16.25135 108.10209 38000 ft 492 kts 155°
2026-04-29 06:12 16.18904 108.13208 38000 ft 493 kts 156°
2026-04-29 06:12 16.12666 108.16207 38000 ft 492 kts 156°
2026-04-29 06:13 16.06511 108.19246 37999 ft 493 kts 151°
2026-04-29 06:13 16.00823 108.23254 38001 ft 493 kts 144°
2026-04-29 06:14 15.95366 108.27542 38001 ft 493 kts 143°
2026-04-29 06:14 15.89923 108.31892 38000 ft 493 kts 143°
2026-04-29 06:15 15.84460 108.36242 38000 ft 493 kts 143°
2026-04-29 06:15 15.79036 108.40538 38001 ft 493 kts 143°
2026-04-29 06:16 15.73581 108.44851 38000 ft 493 kts 143°
2026-04-29 06:16 15.68117 108.49166 38000 ft 493 kts 143°
2026-04-29 06:17 15.62644 108.53488 38000 ft 493 kts 143°
2026-04-29 06:17 15.57214 108.57772 38000 ft 493 kts 143°
2026-04-29 06:18 15.51737 108.62090 38000 ft 493 kts 143°
2026-04-29 06:18 15.46261 108.66404 38000 ft 493 kts 143°
2026-04-29 06:19 15.40490 108.70134 37999 ft 492 kts 156°
2026-04-29 06:19 15.33966 108.72255 38000 ft 492 kts 166°
2026-04-29 06:20 15.27293 108.73851 38000 ft 492 kts 167°
2026-04-29 06:20 15.20596 108.75364 38000 ft 492 kts 167°
2026-04-29 06:21 15.13913 108.76894 38000 ft 492 kts 167°
2026-04-29 06:21 15.07227 108.78450 38001 ft 492 kts 167°
2026-04-29 06:22 15.00547 108.80013 38000 ft 492 kts 167°
2026-04-29 06:22 14.93872 108.81577 38000 ft 492 kts 167°
2026-04-29 06:23 14.87182 108.83134 38000 ft 492 kts 167°
2026-04-29 06:23 14.80505 108.84683 38000 ft 492 kts 167°
2026-04-29 06:24 14.73865 108.86226 38000 ft 492 kts 167°
2026-04-29 06:24 14.67179 108.87778 38001 ft 492 kts 167°
2026-04-29 06:25 14.60507 108.89326 38000 ft 492 kts 167°
2026-04-29 06:25 14.53821 108.90877 38001 ft 492 kts 167°
2026-04-29 06:26 14.47142 108.92425 38000 ft 492 kts 167°
2026-04-29 06:26 14.40464 108.93973 38000 ft 492 kts 167°
2026-04-29 06:27 14.33781 108.95522 38001 ft 492 kts 167°
2026-04-29 06:27 14.27102 108.97068 37999 ft 492 kts 167°
2026-04-29 06:28 14.20421 108.98614 38000 ft 492 kts 167°
2026-04-29 06:28 14.13788 109.00147 37959 ft 491 kts 167°
2026-04-29 06:29 14.10455 109.00917 37738 ft 490 kts 167°
2026-04-29 06:29 14.07125 109.01686 37483 ft 491 kts 167°
2026-04-29 06:29 14.03785 109.02458 37230 ft 492 kts 167°
2026-04-29 06:29 14.00439 109.03230 36985 ft 492 kts 167°
2026-04-29 06:30 13.97100 109.03989 36735 ft 492 kts 169°
2026-04-29 06:30 13.90313 109.04754 35884 ft 489 kts 175°
2026-04-29 06:30 13.86925 109.05053 35169 ft 489 kts 175°
2026-04-29 06:31 13.83527 109.05347 34392 ft 490 kts 175°
2026-04-29 06:31 13.80117 109.05642 33552 ft 493 kts 175°
2026-04-29 06:31 13.76688 109.05941 32679 ft 495 kts 175°
2026-04-29 06:31 13.73264 109.06240 31803 ft 496 kts 175°
2026-04-29 06:32 13.69824 109.06542 31132 ft 493 kts 175°
2026-04-29 06:32 13.66421 109.06840 30516 ft 489 kts 175°
2026-04-29 06:32 13.63050 109.07136 29912 ft 484 kts 175°
2026-04-29 06:32 13.59703 109.07429 29294 ft 480 kts 175°
2026-04-29 06:33 13.56387 109.07720 28679 ft 477 kts 175°
2026-04-29 06:33 13.53090 109.08008 28069 ft 473 kts 175°
2026-04-29 06:33 13.49823 109.08294 27452 ft 469 kts 175°
2026-04-29 06:33 13.46582 109.08578 26875 ft 465 kts 175°
2026-04-29 06:34 13.43413 109.08855 26279 ft 461 kts 175°
2026-04-29 06:34 13.40226 109.09135 25682 ft 457 kts 175°
2026-04-29 06:34 13.37072 109.09411 25099 ft 452 kts 175°
2026-04-29 06:34 13.33953 109.09685 24518 ft 448 kts 175°
2026-04-29 06:35 13.30858 109.09957 23927 ft 444 kts 175°
2026-04-29 06:35 13.27827 109.10441 23309 ft 440 kts 167°
2026-04-29 06:35 13.24889 109.11275 22696 ft 437 kts 163°
2026-04-29 06:35 13.21986 109.12178 22097 ft 432 kts 163°
2026-04-29 06:36 13.19126 109.13073 21510 ft 428 kts 163°
2026-04-29 06:36 13.16290 109.13954 20934 ft 424 kts 163°
2026-04-29 06:36 13.13482 109.14824 20335 ft 420 kts 163°
2026-04-29 06:36 13.10698 109.15683 19743 ft 416 kts 163°
2026-04-29 06:37 13.07942 109.16532 19158 ft 412 kts 163°
2026-04-29 06:37 13.05204 109.17374 18570 ft 408 kts 163°
2026-04-29 06:37 13.02497 109.18206 17973 ft 405 kts 163°
2026-04-29 06:37 12.99811 109.19033 17388 ft 401 kts 163°
2026-04-29 06:38 12.97154 109.19848 16802 ft 397 kts 163°
2026-04-29 06:38 12.95406 109.20385 16416 ft 394 kts 163°
2026-04-29 06:38 12.92790 109.21186 15841 ft 391 kts 163°
2026-04-29 06:38 12.90196 109.21981 15258 ft 387 kts 163°
2026-04-29 06:39 12.87628 109.22769 14689 ft 383 kts 163°
2026-04-29 06:39 12.85080 109.23550 14116 ft 380 kts 163°
2026-04-29 06:39 12.82557 109.24323 13549 ft 377 kts 163°
2026-04-29 06:39 12.80058 109.25090 12984 ft 373 kts 163°
2026-04-29 06:40 12.77590 109.25847 12611 ft 364 kts 163°
2026-04-29 06:40 12.74436 109.26814 12427 ft 343 kts 163°
2026-04-29 06:40 12.72946 109.27271 12343 ft 334 kts 163°
2026-04-29 06:40 12.70761 109.27940 12206 ft 320 kts 163°
2026-04-29 06:41 12.68674 109.28580 12112 ft 306 kts 163°
2026-04-29 06:41 12.66642 109.29100 12105 ft 300 kts 171°
2026-04-29 06:41 12.64573 109.29375 11957 ft 298 kts 174°
2026-04-29 06:41 12.62510 109.29585 11495 ft 299 kts 174°
2026-04-29 06:42 12.60437 109.29783 11022 ft 299 kts 175°
2026-04-29 06:42 12.58366 109.29980 10595 ft 298 kts 174°
2026-04-29 06:42 12.56327 109.30175 10182 ft 297 kts 174°
2026-04-29 06:42 12.54282 109.30373 9766 ft 295 kts 174°
2026-04-29 06:43 12.52246 109.30570 9348 ft 293 kts 174°
2026-04-29 06:43 12.50213 109.30767 8928 ft 292 kts 174°
2026-04-29 06:43 12.48200 109.30959 8523 ft 290 kts 175°
2026-04-29 06:43 12.46200 109.31146 8107 ft 288 kts 175°
2026-04-29 06:44 12.44207 109.31334 7706 ft 286 kts 175°
2026-04-29 06:44 12.42229 109.31523 7283 ft 284 kts 175°
2026-04-29 06:44 12.40263 109.31714 6864 ft 283 kts 174°
2026-04-29 06:44 12.38308 109.31909 6490 ft 281 kts 174°
2026-04-29 06:45 12.36370 109.32100 6085 ft 279 kts 174°
2026-04-29 06:45 12.34439 109.32241 5666 ft 277 kts 181°
2026-04-29 06:45 12.32860 109.32094 5354 ft 275 kts 188°
2026-04-29 06:45 12.30994 109.31779 5137 ft 269 kts 190°
2026-04-29 06:46 12.29152 109.31443 5107 ft 269 kts 190°
2026-04-29 06:46 12.27303 109.31108 5108 ft 269 kts 190°
2026-04-29 06:46 12.25484 109.30775 5108 ft 269 kts 191°
2026-04-29 06:46 12.23704 109.30319 5102 ft 255 kts 195°
2026-04-29 06:47 12.22054 109.29823 5110 ft 239 kts 197°
2026-04-29 06:47 12.20508 109.29341 5108 ft 226 kts 197°
2026-04-29 06:47 12.19054 109.28888 5086 ft 210 kts 197°
2026-04-29 06:47 12.17649 109.28456 5108 ft 212 kts 197°
2026-04-29 06:48 12.16253 109.27996 4792 ft 212 kts 199°
2026-04-29 06:48 12.14859 109.27503 4304 ft 211 kts 199°
2026-04-29 06:48 12.13477 109.27010 3833 ft 209 kts 199°
2026-04-29 06:48 12.12099 109.26523 3268 ft 212 kts 199°
2026-04-29 06:49 12.10682 109.26026 2659 ft 216 kts 199°
2026-04-29 06:49 12.09281 109.25544 2131 ft 205 kts 198°
2026-04-29 06:49 12.07970 109.25089 1674 ft 191 kts 198°
2026-04-29 06:49 12.06781 109.24676 1413 ft 172 kts 198°
2026-04-29 06:50 12.05695 109.24298 1210 ft 157 kts 199°
2026-04-29 06:50 12.04695 109.23936 948 ft 149 kts 200°
2026-04-29 06:50 12.03729 109.23594 665 ft 145 kts 199°
2026-04-29 06:50 12.03638 109.23561 642 ft 145 kts 199°
2026-04-29 06:51 12.03232 109.23415 562 ft 140 kts 200°
2026-04-29 06:51 12.02329 109.23095 373 ft 131 kts 198°
2026-04-29 06:51 12.01455 109.22796 226 ft 133 kts 199°
2026-04-29 06:52 12.01226 109.22715 196 ft 134 kts 199°
2026-04-29 06:52 12.00456 109.22447 54 ft 136 kts 199°
2026-04-29 06:52 11.99725 109.22188 55 ft 75 kts 198°
2026-04-29 06:52 11.99297 109.22044 55 ft 55 kts 198°
2026-04-29 06:53 11.99068 109.21967 54 ft 0 kts 198°
2026-04-29 06:53 11.99055 109.21963 54 ft 5 kts 198°
2026-04-29 06:53 11.99006 109.21946 50 ft 10 kts 201°
2026-04-29 06:53 11.98988 109.21882 51 ft 12 kts 293°
2026-04-29 06:54 11.99024 109.21786 58 ft 16 kts 288°
2026-04-29 06:54 11.99062 109.21666 52 ft 19 kts 282°
2026-04-29 06:54 11.99003 109.21556 51 ft 19 kts 229°
2026-04-29 06:54 11.98947 109.21465 57 ft 13 kts 264°
2026-04-29 06:55 11.99003 109.21422 52 ft 12 kts 12°
2026-04-29 06:55 11.99092 109.21452 53 ft 15 kts 18°
2026-04-29 06:55 11.99201 109.21488 54 ft 18 kts 18°
2026-04-29 06:55 11.99326 109.21531 51 ft 21 kts 19°
2026-04-29 06:56 11.99470 109.21581 55 ft 23 kts 19°
2026-04-29 06:56 11.99631 109.21637 53 ft 26 kts 19°
2026-04-29 06:56 11.99807 109.21698 56 ft 28 kts 19°
2026-04-29 06:56 11.99995 109.21764 55 ft 30 kts 19°
2026-04-29 06:57 12.00192 109.21833 54 ft 25 kts 19°
2026-04-29 06:57 12.00329 109.21881 54 ft 19 kts 19°
2026-04-29 06:57 12.00464 109.21929 54 ft 22 kts 19°
2026-04-29 06:57 12.00619 109.21983 57 ft 25 kts 19°
2026-04-29 06:58 12.00746 109.22026 55 ft 8 kts 18°
2026-04-29 06:58 12.00793 109.22017 55 ft 7 kts 306°
2026-04-29 06:58 12.00818 109.21959 55 ft 11 kts 290°
2026-04-29 06:58 12.00846 109.21878 52 ft 14 kts 289°
2026-04-29 06:59 12.00871 109.21840 50 ft 7 kts 324°
2026-04-29 06:59 12.00924 109.21838 52 ft 9 kts 15°
2026-04-29 06:59 12.00995 109.21862 55 ft 13 kts 18°
2026-04-29 06:59 12.01083 109.21892 53 ft 9 kts 18°
2026-04-29 07:00 12.01108 109.21890 53 ft 1 kts 324°
2026-04-29 07:00 12.01111 109.21885 51 ft 1 kts 304°
2026-04-29 07:00 12.01131 109.21846 52 ft 6 kts 291°
2026-04-29 07:00 12.01140 109.21822 55 ft 0 kts 291°
2026-04-29 07:01 12.01142 109.21815 54 ft 7 kts 290°
2026-04-29 07:01 12.01144 109.21811 55 ft 0 kts 290°